Theta_e
303 295 291 295 296 296 294 290 289 291 295 292 291 292 294 298 297 298 298 299 300 301 317 328 327 324 325 326 328 330 330 332 333 332 330 329 328 334 334 333 337 334 334 339
297 293 299 300 299 297 293 289 289 293 295 292 292 291 294 296 297 298 299 299 300 300 305 321 319 322 324 325 326 328 329 329 332 331 330 328 327 333 332 334 336 338 334 332
295 297 302 299 297 296 294 290 290 290 294 295 293 289 292 297 297 298 299 299 299 300 300 316 318 321 318 319 323 326 326 328 330 330 326 322 327 325 322 329 333 335 336 338
297 301 299 297 296 296 290 295 294 293 290 284 292 282 289 294 296 298 298 296 298 299 300 311 318 320 315 317 323 326 328 330 329 328 325 321 320 320 321 323 330 338 338 341
296 297 297 295 296 299 293 297 294 293 289 286 288 285 288 293 294 298 301 303 303 301 301 303 316 319 318 320 324 324 329 331 329 326 325 323 321 325 328 322 324 334 334 338
299 303 301 299 301 300 299 295 293 293 286 281 286 286 285 289 293 299 302 304 306 308 309 311 314 315 316 321 330 335 336 332 334 335 333 329 329 328 327 330 329 333 337 334
297 297 300 303 298 299 295 288 281 278 279 279 289 286 287 293 298 302 301 303 305 307 309 312 314 319 323 324 323 324 322 320 321 322 323 323 322 320 319 319 320 321 322 321
289 287 296 301 297 293 291 289 280 277 279 281 290 283 288 302 304 305 307 309 311 311 312 314 316 317 317 318 319 320 319 317 318 318 318 319 319 316 317 318 318 316 316 318
288 289 300 301 301 297 292 287 292 285 287 283 287 294 300 302 304 306 307 308 309 311 312 313 314 315 315 315 315 314 314 314 314 316 316 316 317 314 313 314 314 313 312 316
296 287 297 299 301 299 295 295 287 284 280 278 286 291 292 297 300 304 303 304 306 308 310 311 313 314 314 313 314 314 313 311 312 314 315 315 315 314 312 312 312 312 312 313
300 291 293 297 294 290 290 290 288 289 287 280 280 290 302 302 303 302 303 304 304 306 306 307 307 307 308 309 309 307 307 307 309 311 310 310 310 310 312 310 311 309 309 309
301 292 286 290 297 300 297 289 290 284 285 288 285 290 302 303 304 306 307 306 304 305 304 304 304 304 304 304 304 304 304 304 304 307 308 308 307 307 306 307 308 307 306 306
300 293 284 289 293 296 294 292 292 291 291 288 286 290 304 305 303 306 308 305 306 304 303 302 303 302 302 303 303 303 303 302 304 305 304 304 304 305 304 304 304 304 304 303
303 294 288 284 290 293 291 293 296 293 286 289 290 294 299 302 302 305 308 306 302 303 303 302 301 300 301 302 302 302 302 301 302 303 302 302 303 302 301 301 302 302 302 301
296 292 294 297 298 299 297 295 296 293 294 291 294 294 299 302 303 304 308 304 302 301 301 300 299 299 299 299 301 301 301 301 301 301 301 302 302 301 301 300 300 301 301 300
297 293 294 293 298 298 296 298 298 298 298 296 297 295 301 304 305 304 304 303 301 299 299 299 299 299 299 299 298 299 299 299 299 300 300 300 300 300 299 299 299 299 298 297
293 293 289 288 296 296 291 295 297 298 298 298 293 297 302 303 304 304 302 299 297 296 297 297 297 297 296 295 296 295 296 297 297 298 299 299 298 298 298 299 298 297 297 296
295 293 291 289 291 283 296 303 302 298 301 301 300 302 301 300 299 299 299 296 295 294 294 294 294 293 293 293 294 294 295 296 296 295 296 297 297 297 297 296 296 296 296 296
298 293 290 286 286 293 296 299 298 298 297 302 297 297 297 296 295 293 295 295 292 291 292 292 292 291 291 291 292 292 292 292 293 293 293 295 295 297 299 296 295 295 295 296
298 300 292 289 285 283 295 300 302 300 287 300 298 296 295 299 288 288 292 291 290 290 290 289 290 290 289 288 289 289 289 289 289 291 292 294 298 299 297 295 294 298 299 301
293 293 289 288 286 292 300 302 305 289 289 298 297 295 294 289 290 290 290 289 289 288 289 289 288 287 286 287 287 286 289 289 292 292 293 295 298 298 295 296 299 300 301 301
289 287 287 287 285 284 303 301 293 293 293 293 292 291 288 288 288 288 288 287 287 286 287 287 286 286 286 286 289 288 288 290 290 290 291 293 295 294 295 295 298 301 300 300
289 292 291 291 288 292 296 293 295 294 291 291 290 290 289 287 286 286 285 285 285 286 286 287 284 286 287 288 288 287 287 289 288 289 290 291 293 292 292 294 296 298 300 300
297 299 291 289 291 290 292 293 294 293 291 291 291 289 288 286 285 284 285 285 285 285 285 286 285 285 285 286 288 288 289 290 288 288 289 291 288 290 289 293 295 297 299 300
297 297 290 288 290 291 292 292 292 292 292 291 290 289 287 286 284 285 285 285 285 285 285 285 285 285 286 288 288 290 290 290 288 288 288 289 289 287 289 291 292 296 299 299
297 293 289 287 292 290 290 292 293 291 290 290 289 287 287 286 284 285 284 285 285 285 285 285 286 286 286 288 288 289 290 289 287 287 288 287 288 287 288 289 290 294 294 294
Wind_Speed
16 13 18 20 17 8 9 6 6 5 14 5 9 10 10 11 7 9 8 8 9 9 12 17 18 13 8 7 9 10 9 9 10 8 8 4 5 3 1 5 7 6 2 20
11 25 18 10 15 13 10 8 9 11 7 7 11 15 10 10 9 10 12 9 9 6 12 20 12 10 16 15 10 10 11 8 8 4 3 2 4 2 1 4 5 5 6 23
27 7 19 18 15 17 15 14 11 10 4 6 10 7 5 7 6 6 9 9 8 10 10 13 16 15 11 11 14 13 8 9 7 6 5 4 3 2 1 2 4 4 8 21
19 23 25 19 22 16 18 14 17 15 4 6 5 6 4 6 6 1 7 7 8 9 5 9 16 14 11 11 8 10 11 10 8 9 5 6 4 4 3 3 1 4 3 5
18 22 23 23 21 21 15 15 17 16 6 4 1 5 8 4 5 3 2 6 6 10 9 11 11 15 17 14 10 4 6 6 4 7 7 2 1 1 3 2 3 5 8 11
17 12 21 23 18 20 19 12 12 12 4 6 5 7 6 3 6 4 3 2 5 7 7 8 7 10 8 9 8 8 11 7 8 4 6 7 3 3 1 4 7 3 5 3
15 22 16 12 19 17 20 7 3 3 6 6 7 2 8 6 5 5 5 6 8 9 10 10 14 13 13 14 12 12 14 9 7 14 11 7 6 6 7 4 3 5 5 4
14 13 28 18 18 17 13 13 7 6 6 3 3 3 5 5 8 8 8 11 14 13 11 13 13 16 15 17 16 15 14 12 11 12 11 9 8 7 6 9 7 7 5 5
11 11 7 22 19 16 15 12 12 7 2 6 5 4 5 10 15 13 14 18 13 12 12 13 12 13 15 16 15 15 14 10 8 10 9 6 7 7 6 6 7 5 3 3
4 8 10 16 14 18 18 11 8 3 8 5 3 5 3 5 7 10 9 12 13 12 11 10 9 12 12 11 11 11 9 8 7 9 7 7 7 4 7 4 7 6 4 6
1 1 3 3 3 11 3 6 5 8 6 7 5 3 1 3 10 9 5 6 8 11 10 10 9 7 8 10 10 9 10 9 8 8 8 6 4 6 6 2 5 5 6 6
7 2 1 4 6 4 5 8 8 8 3 4 5 3 1 6 2 8 6 7 8 10 8 9 8 11 14 13 13 12 11 13 9 7 5 4 5 6 5 7 7 7 8 6
9 4 3 3 6 1 4 3 8 9 5 6 7 3 4 7 4 3 7 3 10 9 12 13 15 14 13 14 12 11 12 10 7 6 6 6 6 5 6 6 6 7 7 6
5 2 2 6 1 2 5 5 9 9 6 7 5 11 10 12 15 4 4 3 8 13 15 15 14 12 11 10 10 10 10 8 7 7 7 7 6 6 6 5 6 6 6 7
4 5 3 4 9 3 6 5 9 6 8 7 12 14 15 12 8 5 6 15 14 13 13 13 12 9 7 10 10 10 10 9 6 7 7 7 6 5 6 6 6 6 6 7
3 3 6 3 4 6 10 6 9 10 8 7 19 11 7 9 11 15 15 13 15 14 13 13 12 12 12 11 9 9 9 8 8 8 7 7 7 6 6 6 6 5 5 5
7 3 4 6 4 3 4 4 9 10 4 20 13 11 17 13 13 14 9 14 15 15 12 12 12 11 10 9 6 7 6 5 6 6 6 6 6 6 6 6 6 6 6 5
6 5 4 5 5 5 1 6 11 18 14 23 25 18 15 16 15 14 13 16 14 12 12 11 9 9 8 6 7 5 6 7 7 6 5 5 6 5 4 5 5 5 4 6
5 3 5 5 4 11 6 1 8 24 12 19 28 25 21 22 23 16 14 15 13 12 11 9 7 7 7 9 7 7 8 7 7 7 6 7 8 6 6 6 7 6 5 6
12 3 5 4 6 3 10 17 24 16 9 6 24 22 19 16 9 4 8 11 12 11 10 9 8 8 10 10 8 7 7 6 6 7 8 8 7 7 6 6 7 5 6 8
9 7 11 3 5 5 15 14 7 8 7 9 15 11 11 8 7 10 8 12 11 10 11 9 9 9 8 7 7 7 6 8 9 8 8 8 7 7 6 8 7 7 8 8
5 5 3 3 5 6 3 7 6 12 14 19 18 16 21 17 14 12 12 11 11 10 10 10 7 7 6 7 7 7 7 8 8 7 7 8 7 6 6 9 8 7 7 8
6 3 4 5 5 8 17 23 18 19 20 16 18 14 16 15 13 11 10 10 9 8 8 8 6 7 7 7 7 6 6 8 9 7 7 7 8 7 7 8 9 8 8 6
9 8 12 8 11 20 22 21 19 20 21 17 16 16 15 16 12 11 10 9 8 8 7 6 7 7 7 6 7 7 8 9 7 8 7 6 6 8 6 6 6 6 6 7
4 3 13 23 18 21 18 19 20 20 20 19 16 15 15 16 12 13 10 9 8 7 6 7 6 5 6 7 6 6 8 8 8 7 6 7 6 5 7 6 5 6 7 5
2 10 4 8 7 17 16 16 17 19 18 17 17 15 13 13 12 12 10 8 6 5 5 4 4 5 7 7 8 9 8 6 7 6 6 6 5 4 5 6 8 8 7 13
Wind_Direction
200 205 216 219 221 234 225 219 233 232 242 195 253 251 239 239 233 244 240 222 188 208 188 188 197 198 176 185 170 181 176 161 154 165 175 176 204 170 68 121 172 132 215 263
211 223 208 223 216 218 218 231 245 265 273 153 253 252 227 221 226 214 223 238 227 185 159 187 185 182 187 182 183 181 187 166 180 169 132 145 145 216 117 127 216 228 66 291
206 222 202 210 212 213 224 221 232 238 286 276 250 253 227 245 226 232 235 215 224 203 189 185 178 182 185 176 178 182 179 173 166 141 115 94 76 87 145 239 186 228 172 260
223 220 189 205 217 207 227 214 227 244 231 235 156 248 273 229 237 181 252 247 249 239 199 187 187 179 175 189 180 178 179 173 172 166 155 158 166 152 245 240 127 135 203 69
203 192 212 208 211 209 230 216 223 234 208 203 207 87 267 45 332 176 164 142 191 205 180 164 199 187 185 176 174 171 122 102 73 49 22 313 162 96 282 265 246 204 200 176
220 193 198 224 219 219 226 220 231 242 173 229 229 136 275 247 205 175 277 157 165 154 152 152 159 99 100 102 86 67 71 46 83 113 133 197 190 218 288 273 242 280 164 172
208 222 232 202 218 225 220 184 254 248 210 207 197 66 229 323 311 202 145 53 47 29 26 43 92 87 92 83 89 82 86 77 76 86 78 66 90 106 81 84 82 70 47 34
203 212 214 218 214 198 214 190 163 168 178 163 135 190 314 7 25 28 37 77 66 52 48 53 74 87 87 88 90 90 79 65 53 59 62 71 42 68 43 58 53 44 41 13
209 230 204 211 231 203 215 197 197 126 47 121 147 94 50 24 29 43 56 66 66 63 58 60 66 89 94 93 94 96 92 79 63 71 69 27 46 86 59 73 86 49 10 17
288 218 236 241 216 228 213 167 159 6 133 160 145 120 124 12 46 36 44 79 88 85 74 78 74 82 93 97 102 92 83 85 91 94 83 79 27 266 81 60 76 87 34 16
118 37 285 85 158 199 146 164 95 108 120 155 137 112 348 239 134 98 66 63 98 99 105 95 91 79 81 81 74 72 72 73 71 58 53 79 247 48 60 51 67 86 83 66
180 113 211 244 268 200 216 175 141 128 180 95 116 176 298 201 142 124 113 95 123 112 105 101 93 86 78 72 63 63 64 64 47 41 61 65 33 48 41 39 52 49 55 61
154 169 105 6 343 15 197 168 123 113 105 175 121 192 149 139 128 287 87 10 123 112 98 82 67 70 70 65 63 58 51 55 51 42 32 19 33 59 68 59 52 44 46 38
160 116 183 183 87 186 170 123 141 120 113 149 154 155 178 174 163 169 57 3 87 101 94 88 73 62 65 73 71 59 47 47 33 22 19 27 49 47 45 40 41 40 30 23
100 150 219 46 18 9 351 130 143 126 153 135 163 157 174 167 138 131 109 112 100 88 82 82 81 77 62 54 51 48 40 35 23 22 31 27 31 35 33 27 30 27 19 3
88 275 135 121 27 29 63 49 131 115 106 80 113 105 119 120 112 97 94 103 95 88 79 71 71 63 55 56 50 44 33 21 24 26 31 24 22 22 16 17 13 2 349 320
139 230 116 126 147 73 92 324 95 85 43 142 138 138 133 128 123 110 87 83 83 87 78 69 60 62 53 46 39 42 34 25 37 35 33 14 0 360 6 347 348 348 327 307
182 211 83 116 97 160 260 283 119 102 93 108 112 120 111 106 93 85 76 91 84 75 68 66 65 59 43 32 29 28 24 32 44 28 10 350 338 335 335 340 335 316 284 288
221 69 87 118 74 116 120 70 119 119 97 120 118 118 116 108 86 58 65 75 76 67 64 70 57 55 40 27 10 24 23 33 20 8 347 334 322 331 338 331 323 306 301 303
183 218 95 131 117 116 135 133 114 100 72 150 120 124 137 138 99 104 69 69 65 58 54 49 49 51 38 16 12 20 11 16 358 338 323 316 319 331 323 319 307 290 300 311
129 120 119 77 100 70 156 168 70 69 140 98 100 95 101 89 84 108 85 66 62 53 46 37 43 42 28 3 2 2 360 355 332 326 314 316 339 335 337 318 317 314 319 322
109 121 157 96 89 108 187 65 94 127 110 103 88 98 97 94 91 85 74 66 55 48 42 30 32 27 12 358 359 355 354 341 335 327 329 338 341 341 343 329 324 328 330 323
59 161 105 56 81 68 81 104 99 108 104 96 100 95 98 97 88 82 72 61 50 47 37 32 17 17 12 351 351 347 334 341 340 332 334 332 349 344 335 329 333 332 332 326
56 74 110 89 62 79 88 88 93 97 100 102 98 101 100 105 99 90 83 72 63 48 40 29 26 19 8 341 350 344 340 333 336 334 337 345 337 341 329 331 329 317 325 333
55 91 102 97 98 86 82 93 103 97 96 96 93 98 101 100 92 95 90 84 73 63 53 41 28 14 5 348 338 331 332 333 345 341 347 348 344 334 328 334 313 321 313 286
50 136 112 121 112 108 110 106 106 100 98 99 102 96 90 100 105 100 91 84 86 70 48 34 22 13 6 356 358 360 356 354 1 356 356 354 343 340 344 334 331 316 313 350